| time (UTC) | temp C | wind direction | speed KPH | gust KPH | rain 1hr cm | rain 24hr cm | rain mn cm | humidity % | barometer mb |
| 20260504060106 | 13 | 250 | 6.4 | 19.3 | 0.00 | 0.00 | 0.00 | 69 | 1005.6 |
| 20260504050014 | 13 | 219 | 9.7 | 17.7 | 0.00 | 0.00 | 0.00 | 69 | 1006.0 |
| 20260504044555 | 14 | 215 | 9.7 | 16.1 | 0.00 | 0.00 | 0.00 | 68 | 1006.1 |
| 20260504043101 | 14 | 215 | 8.0 | 16.1 | 0.00 | 0.00 | 0.00 | 69 | 1006.2 |
| 20260504041535 | 14 | 186 | 9.7 | 19.3 | 0.00 | 0.00 | 0.00 | 68 | 1006.1 |
| 20260504040034 | 15 | 203 | 11.3 | 20.9 | 0.00 | 0.00 | 0.00 | 66 | 1006.1 |
| 20260504034514 | 15 | 208 | 14.5 | 22.5 | 0.00 | 0.00 | 0.00 | 66 | 1006.1 |
| 20260504033011 | 15 | 234 | 9.7 | 22.5 | 0.00 | 0.00 | 0.00 | 66 | 1006.3 |
| 20260504031552 | 15 | 217 | 11.3 | 20.9 | 0.00 | 0.00 | 0.00 | 64 | 1006.3 |
| 20260504030049 | 16 | 184 | 11.3 | 24.1 | 0.00 | 0.00 | 0.00 | 62 | 1006.3 |
| 20260504024529 | 16 | 188 | 12.9 | 24.1 | 0.00 | 0.00 | 0.00 | 62 | 1006.2 |
| 20260504023028 | 16 | 200 | 11.3 | 20.9 | 0.00 | 0.00 | 0.00 | 61 | 1006.3 |
| 20260504021507 | 16 | 184 | 9.7 | 20.9 | 0.00 | 0.00 | 0.00 | 60 | 1006.3 |
| 20260504020005 | 16 | 196 | 11.3 | 19.3 | 0.00 | 0.00 | 0.00 | 59 | 1006.2 |
| 20260504014551 | 16 | 193 | 8.0 | 19.3 | 0.00 | 0.00 | 0.00 | 58 | 1006.2 |
| 20260504013043 | 17 | 223 | 9.7 | 14.5 | 0.00 | 0.00 | 0.00 | 57 | 1006.1 |
| 20260504011542 | 17 | 196 | 8.0 | 16.1 | 0.00 | 0.00 | 0.00 | 54 | 1006.1 |
| 20260504010037 | 18 | 210 | 11.3 | 22.5 | 0.00 | 0.00 | 0.00 | 52 | 1006.0 |
| 20260504004536 | 18 | 210 | 11.3 | 22.5 | 0.00 | 0.00 | 0.00 | 50 | 1006.0 |
| 20260504003035 | 19 | 213 | 8.0 | 24.1 | 0.00 | 0.00 | 0.00 | 47 | 1006.0 |
| 20260504001536 | 20 | 231 | 8.0 | 24.1 | 0.00 | 0.00 | 0.00 | 46 | 1006.0 |
| 20260504000037 | 20 | 211 | 16.1 | 37.0 | 0.00 | 0.00 | 0.00 | 45 | 1006.0 |
| 20260503234519 | 20 | 271 | 14.5 | 29.0 | 0.00 | 0.00 | 0.00 | 45 | 1006.3 |
| 20260503233014 | 20 | 196 | 12.9 | 35.4 | 0.00 | 0.00 | 0.00 | 45 | 1006.2 |
| 20260503231602 | 20 | 230 | 11.3 | 32.2 | 0.00 | 0.00 | 0.00 | 45 | 1006.2 |
| 20260503230108 | 20 | 211 | 16.1 | 35.4 | 0.00 | 0.00 | 0.00 | 43 | 1006.3 |
| 20260503224537 | 20 | 223 | 14.5 | 37.0 | 0.00 | 0.00 | 0.00 | 44 | 1006.3 |
| 20260503223036 | 20 | 240 | 20.9 | 40.2 | 0.00 | 0.00 | 0.00 | 44 | 1006.5 |
| 20260503221516 | 20 | 228 | 17.7 | 35.4 | 0.00 | 0.00 | 0.00 | 44 | 1006.6 |
| 20260503220016 | 20 | 253 | 19.3 | 38.6 | 0.00 | 0.00 | 0.00 | 43 | 1006.7 |
| 20260503214557 | 20 | 203 | 20.9 | 45.1 | 0.00 | 0.00 | 0.00 | 43 | 1006.6 |
| 20260503213103 | 20 | 254 | 19.3 | 38.6 | 0.00 | 0.00 | 0.00 | 41 | 1006.6 |
| 20260503211549 | 20 | 213 | 24.1 | 48.3 | 0.00 | 0.00 | 0.00 | 41 | 1006.7 |
| 20260503210036 | 20 | 227 | 20.9 | 45.1 | 0.00 | 0.00 | 0.00 | 41 | 1006.9 |
| 20260503204517 | 20 | 242 | 24.1 | 38.6 | 0.00 | 0.00 | 0.00 | 41 | 1007.1 |
| 20260503203014 | 20 | 241 | 19.3 | 40.2 | 0.00 | 0.00 | 0.00 | 40 | 1007.3 |
| 20260503201601 | 20 | 223 | 25.7 | 46.7 | 0.00 | 0.00 | 0.00 | 39 | 1007.5 |
| 20260503200106 | 20 | 227 | 27.4 | 41.8 | 0.00 | 0.00 | 0.00 | 39 | 1007.9 |
| 20260503194601 | 19 | 172 | 22.5 | 51.5 | 0.00 | 0.00 | 0.00 | 41 | 1008.2 |
| 20260503193057 | 18 | 211 | 22.5 | 41.8 | 0.00 | 0.00 | 0.00 | 43 | 1008.6 |
| 20260503191549 | 18 | 205 | 29.0 | 51.5 | 0.00 | 0.00 | 0.00 | 41 | 1008.8 |
| 20260503190048 | 18 | 185 | 29.0 | 53.1 | 0.00 | 0.00 | 0.00 | 39 | 1009.1 |
| 20260503184552 | 18 | 203 | 25.7 | 46.7 | 0.00 | 0.00 | 0.00 | 39 | 1009.0 |
| 20260503183043 | 17 | 209 | 30.6 | 54.7 | 0.00 | 0.00 | 0.00 | 41 | 1009.0 |
| 20260503181519 | 17 | 197 | 25.7 | 51.5 | 0.00 | 0.00 | 0.00 | 43 | 1009.2 |
| 20260503180028 | 17 | 167 | 25.7 | 46.7 | 0.00 | 0.00 | 0.00 | 44 | 1009.8 |
| 20260503174614 | 16 | 180 | 24.1 | 43.5 | 0.00 | 0.00 | 0.00 | 47 | 1010.4 |
| 20260503173101 | 15 | 207 | 20.9 | 43.5 | 0.00 | 0.00 | 0.00 | 50 | 1011.0 |
| 20260503171548 | 14 | 176 | 14.5 | 35.4 | 0.00 | 0.00 | 0.00 | 56 | 1011.4 |
| 20260503081538 | 6 | 208 | 11.3 | 22.5 | 0.00 | 0.00 | 0.00 | 67 | 1015.4 |
| 20260503071546 | 7 | 180 | 8.0 | 17.7 | 0.00 | 0.00 | 0.00 | 65 | 1015.5 |